GEFSCGP_con_maxscp_156.txt.gz
SCP
0 0 0 0 0 0 0 0 0 0 0 0 0 1 1 1 2 4 5 4 3 3 2 2 3 3 4 6 6 5 3 1 1 1 1 1 1 0 0 0 0 0 1 1
0 0 0 0 0 0 0 0 0 0 0 0 0 1 1 1 2 4 5 4 3 3 2 2 3 3 4 5 6 5 3 2 1 1 1 1 1 1 0 0 0 0 1 1
0 0 0 0 0 0 0 0 0 0 0 0 0 0 1 1 2 4 5 3 2 2 2 2 2 3 3 4 5 4 3 2 2 2 1 1 1 1 1 1 1 1 1 1
0 0 0 0 0 0 0 0 0 0 0 0 0 0 0 1 2 3 4 3 2 2 2 2 2 2 3 3 4 3 3 2 2 2 2 2 1 1 1 1 1 1 1 1
0 0 0 0 0 0 0 0 0 0 0 0 0 0 0 1 1 3 3 3 2 2 2 2 2 2 3 4 3 3 3 3 3 3 2 2 2 1 1 1 1 1 1 1
0 0 0 0 0 0 0 0 0 0 0 0 0 0 0 0 1 1 2 2 2 2 2 3 2 3 3 4 4 3 3 3 3 3 3 3 2 2 1 1 1 1 1 1
0 0 0 0 0 0 0 0 0 0 0 0 0 0 0 0 0 1 1 1 2 2 3 3 3 3 4 4 4 3 3 3 3 3 3 3 2 2 2 1 1 1 1 1
0 0 0 0 0 0 0 0 0 0 0 0 0 0 0 0 0 1 1 2 2 3 4 4 4 4 4 5 4 3 3 3 3 3 3 2 2 2 2 1 1 1 1 1
0 0 0 0 0 0 0 0 0 0 0 0 0 0 0 0 0 1 1 2 3 4 4 4 4 4 4 4 4 3 3 3 3 3 2 2 2 2 2 1 1 1 1 1
0 0 0 0 0 0 0 0 0 0 0 0 0 0 0 0 0 1 1 3 3 3 3 3 3 3 3 3 3 3 3 3 4 3 3 3 2 2 2 1 1 1 1 1
0 0 0 0 0 0 0 0 0 0 0 0 0 0 0 0 0 1 1 3 3 3 2 2 2 3 3 3 2 2 2 3 3 4 4 3 3 2 2 2 1 1 1 1
0 0 0 0 0 0 0 0 0 0 0 0 0 0 0 0 1 1 2 3 3 3 3 3 3 3 3 2 2 2 2 2 3 3 3 3 3 3 2 2 2 2 1 1
0 0 0 0 0 0 0 0 0 0 0 0 0 0 0 0 1 2 2 3 4 3 3 4 4 4 3 2 2 2 2 2 2 2 3 3 3 3 3 3 2 2 1 1
0 0 0 0 0 0 0 0 0 0 0 0 0 0 0 0 1 1 2 3 3 4 4 4 5 5 4 3 2 2 2 2 2 2 2 2 2 3 3 3 3 2 2 1
0 0 0 0 0 0 0 0 0 0 0 0 0 0 0 0 1 1 2 3 3 4 4 4 4 5 4 4 3 3 2 2 2 2 2 2 2 2 2 2 2 2 2 2
0 0 0 0 0 0 0 0 0 0 0 0 0 0 0 1 1 2 2 3 3 4 4 4 4 4 4 4 3 3 3 4 3 2 2 2 2 2 2 2 2 2 2 2
0 0 0 0 0 0 0 0 0 0 0 0 0 0 1 1 2 2 2 3 3 3 4 4 4 4 4 4 4 4 5 5 4 3 2 2 2 2 2 2 2 2 2 2
0 0 0 0 0 0 0 0 0 0 1 1 1 2 2 3 3 2 2 3 3 4 4 4 4 4 4 4 4 4 5 5 4 3 3 3 3 3 2 2 2 3 3 2
0 0 0 0 0 0 0 0 1 1 1 2 2 3 4 4 3 2 2 3 4 5 5 4 4 4 4 4 4 5 5 5 4 3 3 3 4 3 2 2 3 3 3 2
0 0 0 0 0 0 0 1 1 1 1 2 3 4 4 4 3 2 3 3 4 5 5 5 4 5 5 4 5 6 6 5 4 3 3 3 4 3 3 3 3 3 2 2
0 0 0 0 0 0 1 1 1 1 1 2 3 4 4 4 3 3 3 3 4 5 5 5 6 6 5 4 5 6 6 5 4 4 4 3 3 3 3 3 2 2 2 2
0 0 0 0 0 0 1 1 1 1 2 2 3 3 4 4 3 3 3 4 4 5 5 5 6 7 5 4 5 6 6 5 4 5 5 4 3 3 3 2 2 2 2 2
0 0 0 0 0 1 1 2 2 2 2 3 3 4 4 4 4 4 4 4 4 5 5 5 5 6 5 5 5 5 5 4 4 5 5 4 3 3 3 2 2 2 2 2
1 0 1 1 1 2 2 2 2 2 3 3 4 4 4 5 5 5 4 4 4 4 3 3 4 5 5 5 5 5 4 4 4 4 4 4 3 3 3 3 3 2 2 2
1 1 1 1 2 2 3 3 3 3 4 4 5 4 4 5 5 4 4 4 3 3 3 3 3 3 4 4 5 4 4 4 3 3 3 3 3 3 3 3 2 1 1 2
1 1 1 1 1 2 3 3 3 3 4 5 5 5 4 4 4 4 3 3 3 3 3 3 2 2 2 3 4 4 4 3 3 2 2 2 2 2 2 2 1 1 1 1

GEFSCGP_con_maxscp_162.txt.gz
SCP
0 0 0 0 0 0 0 0 0 0 0 0 0 1 1 1 2 2 1 2 3 4 4 4 3 2 2 3 3 3 4 3 3 4 4 4 3 1 1 1 1 2 2 1
0 0 0 0 0 0 0 0 0 0 0 0 0 1 1 1 1 1 1 2 2 3 4 4 3 2 3 3 4 4 4 4 4 4 4 4 2 2 1 1 2 2 2 2
0 0 0 0 0 0 0 0 0 0 0 0 0 0 1 1 1 1 1 1 2 3 4 3 3 2 3 4 4 4 4 4 4 5 4 3 3 2 2 1 2 2 3 3
0 0 0 0 0 0 0 0 0 0 0 0 0 0 0 1 1 1 1 1 2 2 3 3 3 3 3 3 4 4 5 5 5 5 5 4 3 3 2 2 1 2 2 2
0 0 0 0 0 0 0 0 0 0 0 0 0 0 0 0 1 1 1 1 2 2 2 3 4 4 3 2 3 4 5 5 5 5 5 4 3 3 2 2 2 2 2 2
0 0 0 0 0 0 0 0 0 0 0 0 0 0 0 0 0 1 1 1 1 2 2 3 4 3 2 2 2 3 4 4 4 4 4 4 3 3 3 2 2 2 2 2
0 0 0 0 0 0 0 0 0 0 0 0 0 0 0 0 0 1 1 1 1 2 2 3 3 3 2 2 2 3 3 4 4 4 3 3 3 3 3 3 2 2 2 2
0 0 0 0 0 0 0 0 0 0 0 0 0 0 0 0 0 1 1 1 1 2 2 2 2 2 2 2 2 2 3 4 4 4 3 3 3 3 3 3 2 2 2 2
0 0 0 0 0 0 0 0 0 0 0 0 0 0 0 0 0 1 1 1 2 2 2 2 2 2 2 2 2 2 3 4 4 4 3 3 3 3 3 2 2 2 2 1
0 0 0 0 0 0 0 0 0 0 0 0 0 0 0 0 1 1 1 1 2 2 2 2 3 3 3 2 2 2 3 4 5 4 3 3 2 2 2 2 2 2 2 2
0 0 0 0 0 0 0 0 0 0 0 0 0 0 0 0 1 1 1 1 2 2 2 3 3 4 4 3 3 3 4 4 4 4 3 2 2 2 2 2 2 2 2 2
0 0 0 0 0 0 0 0 0 0 0 0 0 0 0 1 1 1 1 2 2 2 2 3 3 4 4 3 3 3 3 4 4 4 3 3 2 2 2 2 2 3 3 3
0 0 0 0 0 0 0 0 0 0 0 0 0 0 0 1 1 1 1 2 2 2 2 3 3 4 4 4 3 3 3 4 4 4 3 3 2 2 2 2 2 3 3 3
0 0 0 0 0 0 0 0 0 0 0 0 0 0 0 1 1 1 2 2 2 2 3 3 4 4 5 4 4 4 4 5 5 4 4 3 2 2 2 2 2 3 3 3
0 0 0 0 0 0 0 0 0 0 0 0 0 0 1 1 2 2 2 2 3 3 3 3 4 5 5 5 5 5 5 5 5 5 4 4 3 3 3 3 3 3 4 4
0 0 0 0 0 0 0 0 0 0 0 0 0 0 1 2 2 2 2 3 3 3 4 4 4 5 6 6 6 6 6 6 5 5 5 4 5 4 4 4 4 4 4 4
0 0 0 0 0 0 0 0 0 0 1 1 1 1 2 2 2 2 3 3 3 4 4 5 5 5 6 7 7 7 7 6 6 6 5 5 5 5 4 4 4 4 4 4
0 0 0 0 0 0 0 1 1 1 1 2 2 2 2 3 3 3 3 3 4 4 5 5 5 5 6 7 8 8 7 7 7 7 6 6 6 6 5 5 4 4 4 5
1 1 0 0 0 0 1 1 1 1 1 2 3 3 4 3 3 3 3 4 4 5 5 6 6 6 7 7 8 9 10 10 9 8 7 9 10 8 7 6 5 5 5 5
0 1 0 0 0 0 1 1 2 1 2 3 4 4 4 4 3 3 4 5 5 5 5 6 7 8 8 8 9 11 14 14 11 9 10 12 13 11 9 8 7 6 6 6
0 1 0 0 0 1 2 2 2 2 3 4 5 5 5 4 4 4 5 5 5 5 5 7 8 9 9 9 11 13 15 15 13 12 13 14 12 11 11 11 10 9 8 7
1 1 1 1 1 2 3 3 3 3 4 5 6 6 6 5 5 5 5 5 6 6 7 8 9 9 8 9 11 13 14 14 13 13 13 12 11 11 12 14 14 12 9 8
2 1 2 2 2 3 5 5 5 5 6 6 6 7 7 6 6 6 5 5 6 7 8 10 9 9 8 8 10 11 12 11 11 10 10 10 10 10 11 12 12 11 9 7
2 3 3 4 4 6 7 8 8 7 7 7 7 8 8 8 7 7 7 6 7 8 9 10 9 8 8 8 9 9 10 9 9 9 10 11 11 9 8 8 8 8 7 6
4 4 5 5 6 7 9 9 8 8 7 7 6 7 8 9 8 9 9 8 8 9 9 8 7 7 7 7 8 8 8 9 10 11 12 11 10 7 5 5 5 4 4 3
5 5 5 6 7 8 10 10 8 7 6 5 5 6 7 9 9 10 10 10 10 10 9 7 6 6 6 8 8 8 8 9 10 12 12 10 8 5 4 4 3 2 1 1

GEFSCGP_con_maxscp_168.txt.gz
SCP
0 0 0 0 0 0 0 0 0 0 0 0 0 1 1 2 2 3 3 2 3 4 5 6 6 5 4 5 6 7 6 6 5 5 4 4 3 2 2 2 3 4 3 2
0 0 0 0 0 0 0 0 0 0 0 0 1 1 1 2 2 2 2 2 3 4 6 9 9 6 5 5 6 6 6 6 6 5 5 5 4 3 2 2 3 4 3 2
0 0 0 0 0 0 0 0 0 0 0 0 1 1 1 1 1 2 2 2 2 4 7 11 12 9 5 5 6 6 6 6 6 6 6 5 4 3 3 3 4 4 3 3
0 0 0 0 0 0 0 0 0 0 0 0 0 1 1 1 1 1 1 2 2 4 7 12 13 9 5 5 6 6 6 6 6 6 6 6 5 4 4 4 4 4 4 3
0 0 0 0 0 0 0 0 0 0 0 0 0 1 1 1 1 1 2 2 2 4 6 10 10 8 6 5 6 7 7 6 6 5 5 5 5 4 4 4 4 4 4 3
0 0 0 0 0 0 0 0 0 0 0 0 0 1 1 1 1 1 2 2 3 4 6 7 8 8 6 5 6 7 8 8 7 5 5 5 5 4 4 4 5 4 4 3
0 0 0 0 0 0 0 0 0 0 0 0 0 0 1 1 1 1 2 2 3 4 5 6 7 7 6 6 7 8 9 9 7 6 5 5 5 4 4 4 4 5 4 4
0 0 0 0 0 0 0 0 0 0 0 0 0 0 1 1 1 1 2 2 3 4 5 6 7 7 6 6 6 8 9 9 7 7 6 5 4 4 4 4 4 5 4 4
0 0 0 0 0 0 0 0 0 0 0 0 0 0 1 1 1 1 2 2 3 4 5 5 6 6 5 5 6 8 9 9 7 7 7 6 5 4 3 3 4 4 4 4
0 0 0 0 0 0 0 0 0 0 0 0 0 0 1 2 2 1 2 3 3 3 4 5 5 5 5 5 6 8 9 8 7 7 7 6 5 4 3 3 3 4 4 4
0 0 0 0 0 0 0 0 0 0 0 0 0 0 1 2 2 2 2 3 4 4 5 6 7 6 6 6 7 8 8 7 6 6 6 7 6 5 4 3 3 4 3 3
0 0 0 0 0 0 0 0 0 0 0 0 0 0 1 2 3 3 4 4 5 6 7 8 9 8 7 7 7 8 8 7 6 6 7 8 7 5 4 4 4 4 3 3
0 0 0 0 0 0 0 0 0 0 0 0 0 1 1 3 4 5 5 6 7 8 8 9 9 9 8 7 7 7 8 8 7 8 9 9 7 6 5 4 4 3 3 3
0 0 0 0 0 0 0 0 0 0 0 0 0 1 2 4 6 6 6 6 7 7 7 7 9 9 8 9 9 8 8 9 10 11 11 9 7 6 5 5 4 4 4 4
0 0 0 0 0 0 0 0 0 0 0 0 1 2 4 5 6 6 6 7 7 6 6 6 8 9 9 9 11 12 11 12 14 16 14 10 8 6 6 6 6 5 5 5
0 0 0 0 0 0 0 0 0 0 0 0 2 4 6 7 7 7 8 9 10 9 8 7 8 9 9 10 11 13 14 15 18 18 16 12 10 8 7 7 7 7 7 6
1 1 1 0 0 0 0 0 0 1 1 1 3 6 8 9 10 11 11 12 13 14 13 11 11 12 11 10 11 13 15 18 20 19 17 15 12 10 8 8 8 8 7 7
1 2 1 1 0 0 0 0 1 3 3 3 4 7 9 11 13 14 13 12 13 15 16 14 14 14 12 12 13 15 18 21 22 21 19 16 13 11 10 9 9 8 7 7
2 2 2 1 0 0 0 1 2 4 5 4 5 7 9 10 10 11 12 12 13 15 15 14 14 14 14 15 16 19 22 23 23 22 20 16 13 12 11 10 10 9 8 8
1 1 1 1 1 0 1 2 2 4 4 5 5 7 8 8 8 10 13 14 14 14 13 13 13 13 15 18 21 22 22 22 21 20 18 15 13 12 11 11 11 10 9 9
1 1 1 1 1 1 2 3 4 4 5 6 7 8 9 10 12 14 15 15 13 13 13 13 13 14 17 22 25 24 22 20 18 16 15 14 13 12 11 12 12 11 10 9
1 1 1 1 2 3 4 5 6 7 8 8 9 10 13 15 17 17 15 13 11 12 13 14 15 16 20 25 27 25 22 19 16 15 14 13 12 11 11 12 12 11 10 10
2 2 3 4 6 8 9 8 9 9 9 9 9 11 14 17 17 16 14 12 11 12 14 15 17 20 22 24 25 23 20 18 16 15 14 12 10 9 10 10 11 10 9 9
4 4 5 8 11 13 13 11 10 10 9 9 9 10 13 15 15 14 14 14 14 14 15 16 19 22 24 24 23 20 17 15 14 14 13 10 8 8 9 9 9 9 8 7
4 4 6 8 11 12 13 12 10 9 9 9 9 10 11 12 13 13 13 15 16 16 17 19 20 22 23 23 21 18 14 13 12 12 11 9 8 8 8 8 7 7 6 6
4 4 5 8 9 10 11 10 9 8 9 10 10 11 11 12 13 12 12 14 18 20 20 21 21 21 20 20 19 17 15 12 11 11 10 9 8 9 9 7 5 4 4 4

GEFSCGP_con_maxscp_174.txt.gz
SCP
0 0 0 0 0 0 0 0 0 0 0 1 1 1 2 2 3 4 4 3 3 3 3 3 4 4 4 4 4 3 3 3 3 3 2 2 1 1 1 1 1 1 1 1
0 0 0 0 0 0 0 0 0 0 0 1 1 1 2 3 3 4 4 3 3 3 3 4 4 4 5 5 4 4 3 3 3 2 2 2 2 1 1 1 1 1 1 1
0 0 0 0 0 0 0 0 0 0 1 1 1 1 2 3 4 3 3 3 4 4 4 4 4 4 4 5 5 5 4 4 3 3 2 2 2 1 1 1 1 1 1 1
0 0 0 0 0 0 0 0 0 0 0 1 1 1 2 4 5 4 3 3 4 3 3 4 4 4 4 5 5 5 6 5 4 3 2 2 2 1 1 1 1 1 1 1
0 0 0 0 0 0 0 0 0 0 0 0 0 0 2 4 6 5 4 3 3 4 4 4 4 4 5 5 5 6 6 6 5 3 2 2 2 1 1 1 1 1 1 1
0 0 0 0 0 0 0 0 0 0 0 0 0 0 1 4 6 6 4 3 3 4 4 4 4 5 5 5 5 6 6 6 4 3 2 2 1 1 1 1 1 1 1 1
0 0 0 0 0 0 0 0 0 0 0 0 0 0 1 3 5 5 4 3 3 4 5 5 6 7 6 5 5 5 5 5 4 3 3 2 2 2 2 2 2 2 1 1
0 0 0 0 0 0 0 0 0 0 0 0 0 0 0 2 3 3 3 3 4 5 5 6 6 7 6 6 5 5 5 4 4 4 4 4 3 3 2 2 2 2 2 2
0 0 0 0 0 0 0 0 0 0 0 0 0 0 0 1 2 3 3 3 5 7 7 6 6 6 5 5 5 5 5 5 4 4 5 5 4 4 3 2 1 1 2 2
0 0 0 0 0 0 0 0 0 0 0 0 0 0 0 1 2 3 4 5 7 8 8 7 7 5 4 4 4 4 5 4 4 4 5 4 4 4 3 2 1 1 1 1
0 0 0 0 0 0 0 0 0 0 0 0 0 0 0 1 2 4 5 6 7 7 7 8 7 5 4 4 4 4 4 4 4 4 4 4 3 2 2 2 1 1 1 1
0 0 0 0 0 0 0 0 0 0 0 0 0 0 1 2 3 4 4 5 5 5 5 6 6 5 5 4 4 4 4 4 4 5 5 4 3 2 2 2 1 1 2 2
0 0 0 0 0 0 0 0 0 0 0 0 0 1 1 3 4 4 4 4 4 5 5 6 6 5 5 5 5 4 4 4 5 5 5 5 4 4 3 2 2 2 2 2
0 0 0 0 0 0 0 0 0 0 0 0 1 1 2 3 5 6 6 6 6 6 7 7 6 6 6 6 5 5 5 5 6 6 6 6 6 5 4 3 2 3 3 3
0 0 0 0 0 0 0 0 0 0 0 1 1 2 3 4 6 7 8 9 8 8 8 7 6 6 6 6 6 6 7 7 7 7 8 8 7 6 5 4 3 3 3 3
0 0 0 0 0 0 0 0 1 1 1 1 2 3 4 6 8 8 9 10 10 9 9 8 8 8 8 9 8 8 8 9 9 9 10 9 8 7 7 6 5 5 5 5
0 0 0 0 0 0 0 0 1 2 2 2 2 3 5 7 8 7 8 10 11 11 13 14 13 11 11 11 11 9 9 10 11 11 11 10 9 9 8 7 6 6 7 7
0 0 0 0 0 0 0 1 2 3 3 3 3 4 6 8 10 10 10 12 14 17 20 21 18 14 13 12 11 10 11 12 13 13 12 11 10 10 9 7 6 6 6 7
0 0 0 0 0 0 0 1 2 3 3 4 5 6 8 10 13 14 15 16 18 22 26 24 20 16 15 13 13 13 14 15 16 15 13 11 10 9 8 7 6 5 5 5
0 0 0 0 0 0 1 2 3 3 3 5 6 7 7 9 12 14 17 18 19 22 25 24 21 18 16 15 14 16 17 16 16 15 13 12 10 9 8 7 6 4 3 3
0 0 0 0 0 1 2 3 3 3 4 6 6 6 6 8 10 14 16 16 16 17 19 21 19 17 15 13 13 15 15 15 15 14 14 14 13 11 8 6 4 3 3 3
0 0 0 0 0 1 2 3 3 3 5 6 7 8 9 11 15 19 18 15 14 14 14 15 15 14 12 11 12 13 13 13 14 16 17 17 15 11 7 4 4 4 4 4
0 0 0 1 1 2 2 3 4 5 7 10 13 15 17 19 22 23 20 16 14 14 12 12 12 12 11 11 12 14 14 13 14 17 18 16 13 9 5 4 4 4 4 4
1 1 1 2 3 4 5 5 6 9 12 17 20 21 22 23 24 22 18 15 14 15 14 13 13 11 10 11 13 15 15 14 14 15 14 12 9 6 5 5 4 4 4 4
1 1 2 3 5 6 6 6 8 12 16 18 20 21 21 22 23 21 18 16 16 17 17 15 13 12 11 12 13 14 13 13 12 11 10 7 6 5 5 5 4 3 3 3
1 1 2 3 4 5 6 7 9 12 15 16 17 18 19 21 23 21 20 19 19 19 17 15 14 14 13 13 13 12 12 11 11 10 8 6 5 4 5 5 4 3 3 3

GEFSCGP_con_maxscp_180.txt.gz
SCP
0 0 0 0 0 0 0 0 0 0 0 0 0 1 1 1 2 2 2 2 1 1 1 1 1 1 2 2 2 1 1 1 1 1 1 1 0 0 0 0 1 1 1 1
0 0 0 0 0 0 0 0 0 0 0 0 0 0 1 1 2 2 2 2 2 2 2 2 1 1 2 2 2 2 1 1 1 1 1 1 1 1 0 1 1 1 1 1
0 0 0 0 0 0 0 0 0 0 0 0 0 0 0 1 1 2 2 2 2 2 2 2 1 1 1 2 2 2 2 1 1 1 1 1 1 1 1 1 1 1 1 1
0 0 0 0 0 0 0 0 0 0 0 0 0 0 0 0 1 2 2 2 2 2 2 1 1 1 2 2 2 2 2 2 1 1 1 1 1 1 1 1 1 1 1 1
0 0 0 0 0 0 0 0 0 0 0 0 0 0 0 0 1 1 2 2 2 2 2 2 2 2 2 2 2 2 2 2 2 2 1 1 1 1 1 1 1 1 1 1
0 0 0 0 0 0 0 0 0 0 0 0 0 0 0 0 1 1 2 2 2 2 2 2 2 3 3 2 3 3 3 3 3 2 2 2 1 1 1 1 1 1 1 1
0 0 0 0 0 0 0 0 0 0 0 0 0 0 0 0 0 1 2 2 2 2 2 3 3 3 3 2 2 3 3 3 3 3 2 2 1 1 1 1 1 1 1 1
0 0 0 0 0 0 0 0 0 0 0 0 0 0 0 0 0 1 1 2 2 2 3 3 3 3 2 2 3 3 3 3 3 3 2 2 1 1 1 1 1 1 1 1
0 0 0 0 0 0 0 0 0 0 0 0 0 0 0 0 0 1 1 2 2 2 3 3 3 3 2 2 3 3 2 2 2 2 2 2 2 2 1 1 1 1 1 1
0 0 0 0 0 0 0 0 0 0 0 0 0 0 0 0 0 1 1 2 2 3 3 4 3 3 3 3 3 3 3 2 2 2 2 2 2 2 1 1 1 1 1 1
0 0 0 0 0 0 0 0 0 0 0 0 0 0 0 0 0 1 1 2 3 3 4 4 3 3 3 3 3 3 3 2 2 2 2 2 2 2 1 1 1 1 1 1
0 0 0 0 0 0 0 0 0 0 0 0 0 0 0 0 1 1 2 3 4 4 4 4 4 3 3 3 3 3 2 2 2 2 2 3 3 2 2 1 1 1 1 1
0 0 0 0 0 0 0 0 0 0 0 0 0 0 1 1 1 2 3 4 4 4 5 4 4 4 4 4 3 3 3 2 2 3 3 3 2 2 2 2 2 2 2 2
0 0 0 0 0 0 0 0 0 0 0 0 0 1 1 1 2 3 4 5 4 4 4 5 5 5 5 5 4 4 4 3 3 4 4 3 2 2 2 2 2 2 3 3
0 0 0 0 0 0 0 0 0 0 0 0 0 1 1 1 2 4 5 5 4 4 4 5 5 6 6 6 5 5 5 5 5 5 5 4 3 3 2 2 2 2 3 3
0 0 0 0 0 0 0 0 0 0 0 0 0 0 1 1 2 3 4 5 5 4 4 5 5 6 6 6 6 6 6 6 6 6 5 4 4 3 3 2 2 2 2 3
0 0 0 0 0 0 0 1 1 1 1 1 1 1 2 2 3 4 4 5 5 4 4 4 5 6 6 6 6 6 6 7 7 7 6 5 5 4 3 3 2 2 2 2
0 0 0 0 0 0 0 1 1 2 2 2 2 2 3 4 5 5 5 6 5 4 3 3 4 6 6 6 7 7 7 8 8 8 8 7 6 5 4 3 2 2 2 3
0 0 0 0 0 0 0 1 1 2 2 2 2 3 4 5 6 5 5 5 5 4 3 3 4 6 7 7 8 9 9 9 9 10 10 9 8 6 4 3 2 2 3 3
0 0 0 0 0 0 0 0 1 2 2 2 3 4 6 6 5 5 5 5 5 5 4 4 5 7 8 8 9 10 10 10 10 10 10 10 8 6 4 3 3 2 2 2
0 0 0 0 0 0 0 1 1 1 2 3 4 6 6 6 5 4 5 6 7 7 6 5 6 7 8 9 10 10 8 8 8 9 9 9 7 6 4 3 3 2 2 2
0 0 0 0 0 0 1 1 1 1 1 3 4 5 6 5 5 5 7 8 9 8 7 6 7 8 8 9 9 8 7 6 7 7 8 7 7 6 4 3 3 3 3 3
0 0 0 1 1 1 1 1 1 1 1 2 4 5 5 5 6 7 8 9 9 9 8 7 7 8 8 9 8 7 7 7 7 7 7 7 6 6 4 3 3 3 3 3
0 1 1 2 2 2 2 3 3 2 2 3 4 5 5 6 6 6 8 9 9 9 8 7 7 8 8 8 8 7 7 8 8 7 7 7 7 6 4 4 3 3 3 3
1 1 2 2 2 3 4 4 4 4 3 4 4 5 5 6 6 6 6 8 8 8 7 7 7 8 8 8 8 8 8 8 8 8 8 7 7 6 5 4 3 2 2 2
0 1 1 2 2 3 5 5 5 4 4 4 4 5 5 6 6 5 5 6 7 6 6 6 6 8 8 8 8 9 9 8 8 8 8 8 7 6 5 4 3 2 1 1

GEFSCGP_con_maxscp_186.txt.gz
SCP
0 0 0 0 0 0 0 0 0 0 0 0 0 0 1 1 1 1 1 2 2 2 2 1 1 1 1 2 2 2 2 2 2 2 2 2 2 2 1 1 1 1 1 2
0 0 0 0 0 0 0 0 0 0 0 0 0 0 1 1 1 1 1 1 2 2 2 2 2 1 2 2 2 2 2 2 2 2 2 2 2 2 2 1 1 1 1 2
0 0 0 0 0 0 0 0 0 0 0 0 0 0 0 1 1 1 1 1 2 3 3 2 2 2 2 2 2 3 3 3 3 3 2 2 2 2 2 1 1 1 1 1
0 0 0 0 0 0 0 0 0 0 0 0 0 0 0 1 1 1 1 1 1 2 3 3 2 2 2 2 2 3 3 4 4 3 3 2 2 2 2 1 1 1 1 2
0 0 0 0 0 0 0 0 0 0 0 0 0 0 0 0 1 1 1 1 1 2 2 3 3 2 2 2 2 3 3 4 4 3 3 2 2 2 2 2 2 2 2 2
0 0 0 0 0 0 0 0 0 0 0 0 0 0 0 1 1 1 1 1 1 1 2 2 3 3 3 3 3 3 3 3 3 3 3 2 2 1 2 2 2 2 2 2
0 0 0 0 0 0 0 0 0 0 0 0 0 0 1 1 1 1 2 2 2 1 2 2 3 4 4 4 4 4 4 3 3 3 3 2 1 2 2 2 3 2 2 2
0 0 0 0 0 0 0 0 0 0 0 0 0 1 1 2 2 2 2 3 3 3 2 2 3 3 4 5 5 4 4 4 4 3 3 2 2 2 3 4 4 4 3 3
0 0 0 0 0 0 0 0 0 0 0 0 0 1 1 2 2 2 2 2 3 4 4 3 3 3 4 5 5 4 4 4 4 4 3 3 3 3 4 5 6 6 5 4
0 0 0 0 0 0 0 0 0 0 0 0 0 0 1 2 2 2 2 2 3 4 4 4 4 3 4 4 4 4 4 5 4 4 5 5 4 4 4 6 7 6 5 5
0 0 0 0 0 0 0 0 0 0 0 0 0 1 1 1 1 2 2 2 2 3 4 4 4 4 4 4 4 4 4 5 5 5 6 7 5 4 4 5 6 5 5 5
0 0 0 0 0 0 0 0 0 0 0 0 0 1 1 1 1 1 2 2 2 3 3 4 4 4 4 4 4 4 5 4 4 5 5 6 5 4 4 5 5 5 5 5
0 0 0 0 0 0 0 0 0 0 0 0 0 1 1 2 2 2 2 3 3 3 4 4 4 4 5 5 5 6 6 5 5 4 4 4 4 5 6 7 7 7 6 6
0 0 0 0 0 0 0 0 0 0 0 0 1 1 2 2 2 3 3 4 4 4 5 5 5 5 5 5 5 5 6 7 6 5 5 5 5 7 8 10 10 9 8 7
0 0 0 0 0 0 0 0 0 0 0 1 1 2 2 2 2 2 3 4 4 5 6 5 5 5 5 5 5 5 5 7 7 7 7 7 8 10 11 12 12 11 9 7
0 0 0 0 0 0 0 0 0 0 1 1 2 2 2 3 2 2 3 4 4 5 6 6 5 5 5 5 6 7 7 7 8 11 12 13 13 13 14 15 15 14 11 9
0 0 0 0 0 0 0 0 0 1 1 2 2 2 3 3 3 3 3 4 4 5 6 6 5 5 4 5 6 8 8 8 10 15 17 17 16 15 16 19 19 18 15 13
0 0 0 0 0 0 0 0 1 1 2 2 2 2 3 4 4 3 3 4 5 6 6 6 5 5 6 6 7 8 9 9 10 14 16 17 17 17 18 20 22 21 18 15
0 0 0 0 0 0 0 1 1 1 2 3 3 3 4 5 5 4 4 5 6 7 7 7 6 6 8 9 9 10 10 9 9 11 13 17 19 19 18 20 22 21 17 15
0 0 0 1 1 0 1 1 1 1 2 4 5 5 6 6 6 6 6 6 7 8 8 8 7 7 8 11 12 12 11 10 10 12 16 20 23 22 19 18 19 18 14 13
0 0 0 0 0 1 1 1 1 1 3 5 6 7 7 7 7 7 6 7 7 8 9 8 7 7 8 10 12 13 12 11 12 15 19 23 26 23 19 16 15 14 11 11
1 1 1 0 0 1 2 2 2 2 3 5 6 6 6 6 6 6 6 6 6 7 7 8 8 8 8 10 12 13 14 15 17 18 19 23 24 22 17 13 12 11 9 9
2 2 1 1 1 2 2 3 3 3 4 4 4 4 5 5 6 6 6 6 6 6 6 6 7 8 9 10 12 13 15 18 19 19 19 20 20 18 14 11 10 10 9 8
2 3 2 2 2 3 3 4 4 4 4 4 4 4 4 4 5 5 6 6 6 6 6 6 6 7 9 12 13 12 13 15 16 16 17 19 17 14 12 11 10 10 10 9
2 3 3 3 3 4 4 5 6 5 5 5 5 5 4 4 5 6 6 7 6 6 6 7 7 7 9 11 12 11 11 12 12 13 16 18 16 13 10 9 8 8 8 8
2 2 3 3 3 4 5 6 6 6 6 6 6 5 4 4 5 6 7 7 6 6 6 7 8 8 8 9 11 11 12 13 12 12 15 17 15 12 9 7 6 6 6 5

GEFSCGP_con_maxscp_192.txt.gz
SCP
0 0 0 0 0 0 0 0 0 0 0 0 0 1 2 2 2 2 2 2 2 2 2 2 3 3 3 4 5 5 5 4 4 3 3 3 3 2 2 2 3 3 3 2
0 0 0 0 0 0 0 0 0 0 0 0 0 1 2 2 2 2 2 2 2 2 3 3 3 3 3 4 5 5 5 5 4 4 3 3 3 3 2 2 3 3 3 2
0 0 0 0 0 0 0 0 0 0 0 0 0 1 2 2 2 2 2 2 2 2 3 4 4 3 3 4 4 5 5 5 4 4 3 3 3 3 3 3 3 3 2 2
0 0 0 0 0 0 0 0 0 0 0 0 0 1 2 2 2 2 2 2 2 2 3 5 5 4 4 4 4 5 5 5 5 4 3 2 2 3 3 3 3 2 2 2
0 0 0 0 0 0 0 0 0 0 0 0 0 1 2 2 2 2 2 2 2 2 3 5 6 5 4 4 5 5 6 6 6 5 4 3 3 3 3 3 3 3 3 3
0 0 0 0 0 0 0 0 0 0 0 0 0 1 2 3 3 2 2 3 3 3 3 5 6 6 5 5 6 7 7 7 7 6 4 3 3 3 3 3 3 3 3 3
0 0 0 0 0 0 0 0 0 1 1 0 0 1 3 4 4 4 3 4 5 5 5 6 7 7 7 6 8 9 10 9 8 7 5 4 4 4 3 3 3 3 3 3
0 0 0 0 0 0 0 0 1 1 1 0 1 2 4 5 5 4 4 5 6 6 7 8 9 8 8 8 9 11 12 11 8 7 6 5 5 5 4 4 3 3 3 3
0 0 0 0 0 0 0 0 0 1 1 1 1 2 4 4 4 3 3 4 5 5 7 8 8 7 8 8 10 12 14 11 9 7 7 6 6 6 5 5 5 4 3 3
0 0 0 0 0 0 0 0 0 1 1 1 1 2 4 4 4 3 3 3 4 5 6 6 6 5 5 6 9 12 13 11 8 8 7 6 7 7 6 6 6 6 6 6
0 0 0 0 0 0 0 0 0 1 1 1 1 2 4 5 6 6 5 5 5 6 6 6 6 6 6 6 8 10 10 9 8 7 7 7 7 7 7 7 7 7 8 9
0 0 0 0 0 0 0 0 0 1 1 1 1 2 4 6 7 7 6 6 7 7 7 7 8 9 9 8 8 9 8 8 7 7 7 8 8 8 7 8 8 8 9 9
0 0 0 0 0 0 0 0 0 1 1 1 1 3 5 5 5 5 5 6 7 8 9 9 9 10 10 10 10 10 8 7 8 8 8 8 9 10 9 9 9 9 9 9
0 0 0 0 0 0 0 0 0 0 0 1 2 4 5 5 4 4 4 5 7 9 11 11 11 11 12 12 13 13 10 8 9 10 10 9 9 10 10 9 9 10 11 10
0 0 0 0 0 0 0 0 0 0 1 1 3 4 6 6 5 6 6 6 7 9 11 11 11 13 14 13 13 14 14 11 10 11 11 10 9 9 10 9 9 11 12 11
0 1 1 1 1 0 0 0 0 0 1 1 3 5 6 6 6 8 8 7 7 8 9 10 11 12 12 11 11 14 16 14 11 10 11 10 9 9 9 8 8 10 12 13
1 1 1 1 1 0 0 0 0 1 1 2 3 5 6 6 8 9 8 7 7 8 9 11 13 12 10 8 9 11 15 15 12 11 10 10 10 10 9 8 9 12 14 15
1 1 1 1 2 1 1 1 1 1 2 2 3 5 5 7 9 10 8 7 8 10 12 15 15 14 11 10 9 11 15 16 15 13 13 13 12 11 10 10 12 16 19 20
1 1 1 1 2 1 1 1 1 2 2 3 3 4 4 7 10 10 8 8 9 11 15 17 16 15 15 15 14 14 15 16 16 15 15 15 13 12 11 13 17 22 25 27
0 1 1 1 2 1 1 1 2 2 3 4 4 4 5 7 9 9 8 8 9 11 12 13 13 14 17 19 18 16 15 15 16 16 16 17 17 16 15 17 23 28 30 30
0 1 1 1 1 1 1 1 3 4 6 7 6 6 6 8 9 9 10 10 10 9 9 10 11 14 17 20 20 18 16 15 16 17 19 21 21 19 17 20 28 31 28 23
0 1 1 1 1 2 2 3 5 9 11 10 8 7 8 10 11 12 12 11 10 9 9 10 13 16 19 21 22 22 20 19 20 22 23 24 22 18 18 22 29 28 20 14
1 1 1 2 3 4 5 5 8 12 14 12 9 8 9 11 13 13 12 11 11 11 11 14 18 21 23 24 25 25 23 23 24 25 26 25 21 18 19 22 24 21 15 11
1 1 2 3 4 6 7 7 9 13 16 14 9 7 9 11 12 12 13 12 12 13 14 16 20 23 25 24 24 22 21 21 22 23 24 24 22 20 20 20 19 17 14 12
1 1 2 4 5 6 8 8 8 10 13 13 10 8 9 10 10 12 14 15 13 12 12 14 16 18 19 18 17 15 15 15 16 17 18 20 19 19 19 17 15 14 13 12
1 1 2 4 4 6 8 8 7 8 10 12 10 9 9 9 9 12 15 15 12 10 9 10 11 12 12 11 10 10 11 12 12 14 15 17 17 16 16 14 12 12 12 10

GEFSCGP_con_maxscp_198.txt.gz
SCP
0 0 0 0 0 0 0 0 0 0 0 0 0 1 1 2 2 2 2 2 2 2 2 2 2 2 2 2 2 2 2 2 2 2 1 1 1 1 1 1 1 1 1 1
0 0 0 0 0 0 0 0 0 0 0 0 0 1 1 2 2 2 2 2 2 2 2 2 2 2 2 2 2 2 2 2 2 2 2 2 1 1 1 1 1 1 1 1
0 0 0 0 0 0 0 0 0 0 0 0 0 0 1 2 2 3 2 2 2 2 2 2 2 2 2 2 2 2 2 2 2 2 2 2 2 2 1 1 1 1 1 1
0 0 0 0 0 0 0 0 0 0 0 0 0 0 1 1 2 2 2 2 3 3 2 2 3 3 2 2 2 2 2 2 2 2 2 2 2 2 1 1 1 1 1 1
0 0 0 0 0 0 0 0 0 0 0 0 0 0 1 2 3 3 3 3 4 3 3 3 3 4 3 3 3 3 3 3 3 3 3 2 2 2 1 1 1 1 1 1
0 0 0 0 0 0 0 0 0 0 0 0 0 0 1 2 3 4 5 6 6 5 4 4 4 5 4 4 4 4 3 3 4 4 3 3 3 2 2 1 1 1 1 1
0 0 0 0 0 0 0 0 0 0 0 0 0 1 1 3 4 6 7 7 7 7 5 5 4 5 6 6 6 5 4 4 4 4 4 4 4 3 2 2 2 1 1 2
0 0 0 0 0 0 0 0 0 0 0 0 1 1 3 5 7 8 7 7 7 7 7 5 4 5 7 8 9 7 6 5 4 4 4 4 4 4 3 3 2 2 2 2
0 0 0 0 0 0 0 0 0 0 0 0 1 2 4 6 8 8 8 7 8 8 7 6 5 5 7 10 10 10 9 8 6 4 4 4 4 4 4 4 4 3 3 3
0 0 0 0 0 0 0 0 0 0 0 1 2 2 4 5 6 7 8 9 9 9 8 7 6 6 8 11 13 13 12 10 7 5 4 4 3 3 4 4 5 4 4 3
0 0 0 0 0 0 0 0 0 0 0 1 2 2 3 3 5 6 8 9 9 9 9 7 6 7 10 16 18 16 13 10 7 5 4 4 4 3 4 4 5 5 5 4
0 0 0 0 0 0 0 0 0 0 0 1 2 2 3 4 6 7 8 8 8 8 9 8 7 10 16 22 21 15 11 9 6 5 4 4 4 4 4 5 6 6 5 5
0 0 0 0 0 0 0 0 0 0 0 1 2 3 4 6 7 7 7 9 8 8 9 9 10 16 22 24 19 12 9 8 7 6 5 4 4 4 4 5 7 7 5 5
0 0 0 0 0 0 0 0 0 0 1 1 2 4 7 9 9 8 8 10 10 9 10 11 15 21 24 21 16 11 9 9 8 7 6 5 5 5 5 6 7 7 5 5
0 0 0 0 0 1 1 1 1 1 1 2 4 6 8 10 10 9 9 10 11 11 12 14 19 22 22 20 16 12 10 9 10 10 8 6 5 5 5 5 6 6 6 6
0 0 0 0 1 2 3 2 1 1 2 4 7 8 8 9 9 10 10 11 12 12 14 16 19 19 19 18 16 11 9 10 12 12 11 9 7 6 5 5 6 6 7 7
0 0 0 0 1 2 3 3 2 2 3 6 8 8 7 7 7 8 10 12 13 13 14 15 15 14 14 14 11 8 7 8 11 13 14 13 10 8 6 6 7 8 9 9
0 0 0 0 1 2 2 2 2 3 4 5 6 7 7 7 7 7 8 10 13 14 15 14 12 10 10 9 8 7 6 7 9 12 13 14 13 10 8 8 9 11 13 14
0 0 0 1 1 2 2 2 2 2 3 4 5 7 8 8 9 8 8 9 13 15 16 13 11 9 8 9 9 9 8 8 9 10 11 13 14 12 11 11 11 12 15 17
0 0 0 1 1 2 2 1 2 2 3 3 4 6 7 8 8 7 8 11 14 15 14 11 9 8 8 9 11 12 11 10 8 8 10 11 13 13 13 12 12 12 14 15
0 0 0 0 1 1 1 1 2 2 2 2 3 5 5 5 6 7 10 14 16 14 10 8 8 8 8 9 11 11 11 9 8 8 9 10 12 13 14 14 13 13 13 13
0 0 0 0 0 0 1 1 1 1 2 2 3 4 5 5 6 9 13 17 17 13 9 10 12 11 9 9 10 10 10 9 9 9 9 10 12 14 15 16 15 15 14 13
0 0 0 1 1 0 1 1 1 1 1 2 4 6 6 6 7 10 14 18 18 15 12 13 17 15 10 10 11 11 10 11 12 11 10 11 12 15 17 17 17 16 15 13
0 0 1 1 1 1 1 1 1 1 1 4 7 8 7 6 6 9 13 16 17 16 14 14 15 14 11 12 14 13 12 13 14 13 12 12 14 16 17 17 17 17 15 13
0 1 1 1 1 1 1 1 1 1 2 5 10 11 9 7 7 10 12 13 14 15 14 13 12 12 12 13 15 15 14 14 14 13 12 12 12 14 16 16 16 15 14 12
0 1 1 2 1 1 2 2 1 1 3 6 11 13 11 7 8 10 11 12 13 14 14 13 12 11 11 13 15 16 15 14 13 12 10 9 9 11 14 15 14 12 11 10

GEFSCGP_con_maxscp_204.txt.gz
SCP
0 0 0 0 0 0 0 0 0 0 0 0 0 0 0 0 0 1 1 1 1 1 1 1 1 1 1 1 1 1 1 1 1 1 1 1 1 1 1 1 0 1 1 1
0 0 0 0 0 0 0 0 0 0 0 0 0 0 0 0 0 1 1 1 1 1 1 1 1 1 1 1 1 1 1 1 1 1 1 1 1 1 1 1 1 1 1 1
0 0 0 0 0 0 0 0 0 0 0 0 0 0 0 0 0 0 1 1 1 1 1 1 1 1 1 1 1 1 1 1 1 1 1 1 1 1 1 1 1 1 1 1
0 0 0 0 0 0 0 0 0 0 0 0 0 0 0 0 0 0 1 1 1 1 1 1 1 1 1 1 1 1 1 1 1 1 1 1 1 1 1 1 1 1 1 1
0 0 0 0 0 0 0 0 0 0 0 0 0 0 1 1 1 1 1 1 1 1 1 1 1 2 2 2 1 1 1 1 1 1 1 1 1 1 1 1 1 1 1 1
0 0 0 0 0 0 0 0 0 0 0 0 0 1 1 2 1 1 1 1 1 1 1 1 2 2 2 2 2 2 2 2 1 1 1 1 1 1 1 1 1 1 1 1
0 0 0 0 0 0 0 0 0 0 0 0 1 1 2 2 2 2 1 1 1 1 1 1 2 3 3 3 2 2 2 2 1 1 1 1 1 1 1 1 1 1 1 1
0 0 0 0 0 0 0 0 0 0 0 0 1 2 2 2 2 2 1 1 1 1 2 2 2 3 4 4 3 3 2 2 1 1 1 1 1 1 1 1 1 1 1 1
0 0 0 0 0 0 0 0 0 0 0 0 1 1 1 2 2 2 2 1 1 2 2 2 3 4 4 4 4 3 3 2 2 2 2 2 2 2 1 1 1 1 1 2
0 0 0 0 0 0 0 0 0 0 0 0 1 1 2 2 2 2 3 3 2 2 2 2 3 4 5 5 5 5 4 3 3 3 3 3 2 2 2 1 1 1 1 2
0 0 0 0 0 0 0 0 0 0 0 0 1 1 2 2 3 4 4 4 4 3 3 3 4 5 5 5 6 6 6 5 5 5 4 3 3 2 2 1 1 1 1 1
0 0 0 0 0 0 0 0 0 0 0 1 1 2 2 3 5 6 6 5 4 4 3 3 4 5 5 6 7 8 8 8 7 7 5 4 4 3 2 2 1 1 1 2
0 0 0 0 0 0 0 0 0 0 1 1 1 2 3 5 6 6 5 5 4 4 3 3 3 4 5 6 7 9 10 11 10 9 7 6 5 4 3 3 2 2 2 3
0 0 0 0 0 0 1 1 1 1 1 1 1 2 4 5 5 5 5 4 4 3 3 3 3 3 5 6 8 11 13 13 12 10 8 6 4 3 3 3 3 3 3 3
0 0 0 0 1 1 1 1 1 1 1 1 2 3 4 4 5 5 5 4 4 4 3 3 3 3 5 8 10 12 14 13 11 9 6 4 3 3 2 2 3 3 4 4
0 0 0 0 0 1 1 1 2 2 2 2 3 4 4 4 5 5 5 4 4 4 4 4 4 4 6 9 12 14 14 12 9 7 5 4 3 3 3 3 3 4 4 4
0 0 0 0 0 0 1 1 2 2 3 4 5 5 6 5 5 5 4 4 4 4 4 4 4 5 7 11 13 14 13 9 7 5 4 4 3 3 3 3 3 3 4 4
0 0 0 0 0 0 0 1 2 2 3 4 4 5 6 5 5 5 4 3 3 3 4 4 4 6 9 12 13 12 10 7 5 4 4 4 4 4 4 4 4 4 4 4
0 0 0 0 0 0 0 1 1 2 2 3 4 5 5 4 4 4 4 3 4 4 4 5 5 8 10 12 12 11 9 7 5 4 4 4 4 5 5 4 4 4 4 4
0 0 0 0 0 0 0 1 1 1 1 2 5 6 5 4 4 4 4 4 4 4 4 6 8 9 10 10 10 10 8 6 5 4 4 4 5 5 5 5 5 5 5 5
0 0 0 0 0 0 0 0 1 1 1 3 5 5 4 4 4 4 4 4 4 3 4 6 9 10 9 9 9 8 7 5 5 4 4 4 4 4 5 5 5 5 6 7
0 0 0 0 0 0 0 0 1 1 1 3 4 3 2 2 3 4 4 4 3 3 4 6 9 9 8 8 9 7 6 5 5 5 5 4 3 4 5 5 6 6 8 9
0 0 0 0 0 0 0 0 0 0 1 1 2 1 1 1 2 3 4 3 3 4 6 7 8 8 7 9 11 9 7 6 6 7 6 5 4 4 5 6 7 8 9 10
0 0 0 0 0 0 0 0 0 0 0 0 0 0 0 1 1 2 3 3 3 5 7 7 7 7 7 9 11 10 8 7 7 8 9 8 7 7 7 6 7 8 8 9
0 0 0 0 0 0 0 0 0 0 0 0 0 1 1 2 2 2 2 2 4 6 6 6 6 7 7 8 8 7 6 5 5 6 10 12 13 11 8 5 5 5 6 6
0 0 0 0 0 0 0 1 1 1 1 0 1 1 2 2 2 2 2 2 4 5 5 5 6 7 8 7 6 4 4 4 3 4 8 13 16 14 9 4 2 3 4 5

GEFSCGP_con_maxscp_210.txt.gz
SCP
0 0 0 0 0 0 0 0 0 0 0 0 0 1 1 1 1 1 1 1 1 1 1 1 1 1 1 2 1 1 1 1 1 1 1 1 1 1 1 1 1 1 1 1
0 0 0 0 0 0 0 0 0 0 0 0 0 1 1 1 1 1 1 1 1 2 2 2 2 1 1 2 2 1 1 1 1 1 1 1 1 1 1 1 1 1 1 1
0 0 0 0 0 0 0 0 0 0 0 0 0 1 1 1 1 1 1 1 2 2 3 3 3 3 2 2 2 2 2 1 1 1 1 1 1 1 1 1 1 1 1 1
0 0 0 0 0 0 0 0 0 0 0 0 0 0 1 1 1 1 1 1 1 2 3 3 3 4 4 3 3 2 2 2 2 2 2 1 1 1 1 1 1 1 1 1
0 0 0 0 0 0 0 0 0 0 0 0 0 0 1 1 2 2 2 1 1 2 2 2 2 3 3 3 3 3 2 2 2 2 1 1 1 1 2 2 2 2 1 1
0 0 0 0 0 0 0 0 0 0 0 0 0 0 1 2 2 2 2 2 2 1 1 1 2 2 3 4 4 3 3 2 2 2 1 1 1 2 2 2 2 2 2 1
0 0 0 0 0 0 0 0 0 0 0 0 0 1 1 2 2 2 2 2 2 2 2 2 2 3 4 4 5 5 4 4 3 2 2 2 2 2 2 2 2 2 2 1
0 0 0 0 0 0 0 0 0 0 0 0 0 1 2 2 2 2 2 2 2 2 2 3 3 3 3 5 6 6 6 5 4 4 3 3 3 3 3 3 3 3 2 2
0 0 0 0 0 0 0 0 0 0 0 0 0 1 1 2 2 2 2 2 2 2 3 3 4 3 3 4 6 7 7 7 6 5 4 4 5 5 5 5 5 4 3 2
0 0 0 0 0 0 0 0 0 0 0 0 0 1 2 2 2 2 2 2 2 2 3 4 5 4 3 4 6 8 8 8 7 6 6 6 8 9 9 8 7 5 4 3
0 0 0 0 0 0 0 0 0 0 0 0 0 1 2 2 2 3 3 3 2 3 3 4 5 5 4 5 6 8 9 8 8 8 9 11 13 13 12 10 8 7 5 4
0 0 0 0 0 0 0 0 0 0 0 0 0 1 2 2 3 4 4 4 4 4 4 4 5 6 6 7 8 9 10 9 9 10 13 15 15 14 13 10 8 7 7 8
0 0 0 0 0 1 1 1 0 0 0 0 0 1 1 2 3 4 5 5 5 5 5 5 6 7 7 8 10 10 10 10 9 10 13 15 14 11 11 10 8 7 8 11
0 0 0 0 0 1 1 1 1 1 1 0 1 1 2 3 4 4 4 5 6 7 7 8 8 8 8 7 8 9 9 9 9 9 11 11 11 10 10 9 8 7 8 11
0 0 0 0 0 0 1 1 1 1 1 1 1 1 2 3 3 3 4 5 6 6 8 10 11 10 7 6 6 6 7 7 7 7 8 9 9 9 9 9 8 7 8 9
0 0 0 0 0 0 0 1 1 1 1 1 1 2 2 3 3 3 4 5 5 6 7 10 12 10 7 6 6 6 7 6 5 6 6 6 7 7 8 8 9 9 8 8
0 0 0 0 0 0 0 0 1 1 1 2 2 2 3 3 3 3 4 4 5 6 8 11 12 10 7 6 6 7 7 6 5 5 5 6 6 6 6 8 8 8 8 7
0 0 0 0 0 0 0 1 1 1 1 2 3 3 3 4 4 3 3 3 4 6 8 10 11 9 6 6 7 8 7 6 5 5 6 7 7 6 6 7 7 7 6 5
0 0 0 0 0 0 0 1 1 1 2 2 3 4 5 5 5 4 3 3 4 5 7 8 8 7 6 6 7 7 7 6 6 6 8 9 9 7 6 6 7 7 6 5
0 0 0 0 0 0 0 1 1 1 2 2 3 5 6 6 6 5 4 4 5 6 7 7 7 7 6 7 8 9 9 8 7 7 8 9 9 8 6 6 7 7 6 6
0 0 0 0 0 0 1 1 1 1 2 2 3 4 6 6 6 6 6 6 6 6 7 7 8 8 8 8 9 11 11 10 9 9 8 8 8 7 7 7 7 8 7 6
0 0 0 0 0 1 1 1 1 2 2 2 3 4 5 6 6 6 6 7 6 6 7 8 8 9 9 9 10 12 12 11 11 10 9 8 8 7 8 8 8 8 7 7
0 0 0 1 1 1 1 1 1 1 2 3 3 4 4 5 5 6 6 6 6 7 7 8 8 9 10 10 10 11 11 11 11 10 9 8 8 8 9 10 9 8 7 7
0 0 1 1 1 1 1 1 1 1 2 2 3 3 3 4 4 4 4 5 5 5 5 6 6 8 9 9 9 11 11 11 10 9 8 7 8 10 11 10 9 8 8 7
1 1 1 1 1 1 1 1 1 2 2 2 2 2 2 3 3 3 3 3 3 3 4 4 5 6 8 9 9 11 12 11 10 9 8 7 7 9 10 10 9 8 7 7
1 1 1 1 1 1 1 1 1 2 2 1 1 1 1 2 3 3 2 2 2 3 3 4 4 6 8 9 10 11 12 11 11 10 8 6 6 8 9 10 9 7 7 7